Location: El Manguito
(10.2358°N, 67.3634°W)
Time: 21:09:08
(UTC+00:00)

Aurora 2 Rocket - Pass Details

Date: 08 December 2024
Orbit: 386 x 1590 km, 25.0° (Epoch: 12 January)

Event Time Altitude Azimuth Distance (km) Brightness Sun altitude
Exits shadow 09:13:06 25° 338° (NNW) 1,518 4.2 -19.6°
Maximum altitude 09:14:56 31° 12° (NNE) 1,235 4.0 -19.2°
Drops below altitude 10° 09:18:53 10° 75° (ENE) 1,905 5.9 -18.3°
Sets 09:21:04 0° 87° (E) 2,655 7.0 -17.8°
